Weather History for CWJX - September, 2012

Change the Weather History Date:

Tuesday, September 18, 2012

  Actual Average Record
Temperature  
Mean Temperature 60 °F -  
Max Temperature 78 °F - - ()
Min Temperature 41 °F - - ()
Degree Days  
Heating Degree Days 6    
Growing Degree Days 10 (Base 50)    
Moisture  
Dew Point 30 °F    
Average Humidity 36    
Maximum Humidity 61    
Minimum Humidity 8    
Precipitation  
Precipitation 0.00 in - - ()
Sea Level Pressure  
Sea Level Pressure 29.89 in    
Wind  
Wind Speed 10 mph ()    
Max Wind Speed 22 mph    
Max Gust Speed 30 mph    
T = Trace of Precipitation, MM = Missing Value Source: Averaged Metar Reports

Daily Weather History Graph

Daily Weather History Graph

Search for Another Location

Airport or City:

Trip Planner

Search our weather history database for the weather conditions in past years. The results will help you decide how hot, cold, wet, or windy it might be!

Date:

Astronomy

Sep. 18, 2012 Rise Set
Actual Time 6:58 AM CST 7:23 PM CST
Civil Twilight 6:25 AM CST 7:56 PM CST
Nautical Twilight 5:46 AM CST 8:35 PM CST
Astronomical Twilight 5:05 AM CST 9:16 PM CST
Moon 10:30 AM CST (9/18) 8:19 PM CST (9/18)
Length of Visible Light 13h 31m
Length of Day
12h 25m
Waxing Crescent, 9% of the Moon is Illuminated
Sep 18
Waxing Crescent
Sep 22
First Quarter
Sep 29
Full
Oct 8
Last Quarter
Oct 15
New

Hourly Weather History & Observations

Time (CST) Temp. Windchill Dew Point Humidity Pressure Visibility Wind Dir Wind Speed Gust Speed Precip Events Conditions
12:00 AM 52 °F - 30 °F 31% 29.91 in - West 8.1 mph - -  
12:00 AM 51.8 °F - 30.4 °F 44% 29.91 in - West 8.1 mph - N/A   Unknown
1:00 AM 45.3 °F 40.1 °F 30.9 °F 57% 29.92 in - WSW 10.4 mph - N/A   Unknown
2:00 AM 44.6 °F 39.2 °F 30.4 °F 57% 29.90 in - WSW 10.4 mph - N/A   Unknown
3:00 AM 44.1 °F 38.6 °F 30.4 °F 59% 29.90 in - WSW 10.4 mph - N/A   Unknown
4:00 AM 44.2 °F 41.0 °F 29.8 °F 57% 29.90 in - WSW 5.8 mph - N/A   Unknown
6:00 AM 43 °F - 30 °F 49% 29.89 in - WSW 9.2 mph - -  
6:00 AM 43.2 °F 37.9 °F 30.4 °F 61% 29.89 in - WSW 9.2 mph - N/A   Unknown
7:00 AM 42.4 °F 37.5 °F 29.7 °F 61% 29.90 in - West 8.1 mph - N/A   Unknown
8:00 AM 47.3 °F - 31.5 °F 54% 29.89 in - WSW 9.2 mph - N/A   Unknown
9:00 AM 55.9 °F - 31.6 °F 40% 29.88 in - WSW 11.5 mph - N/A   Unknown
10:00 AM 64.8 °F - 31.1 °F 28% 29.85 in - West 17.3 mph - N/A   Unknown
12:00 PM 75 °F - 25 °F 8% 29.83 in - WNW 15.0 mph - -  
12:00 PM 75.2 °F - 24.8 °F 15% 29.83 in - WNW 15.0 mph - N/A   Unknown
1:00 PM 76.8 °F - 27.5 °F 16% 29.83 in - WNW 8.1 mph 18.4 mph N/A   Unknown
2:00 PM 77.5 °F - 26.6 °F 15% 29.82 in - NW 15.0 mph 24.2 mph N/A   Unknown
3:00 PM 78.1 °F - 26.4 °F 15% 29.82 in - NNW 15.0 mph 23.0 mph N/A   Unknown
4:00 PM 74.5 °F - 29.3 °F 19% 29.83 in - NW 20.7 mph 29.9 mph N/A   Unknown
5:00 PM 73.8 °F - 30.4 °F 20% 29.84 in - NNW 21.9 mph 29.9 mph N/A   Unknown
6:00 PM 72 °F - 32 °F 13% 29.87 in - NW 18.4 mph - -  
6:00 PM 71.6 °F - 31.6 °F 23% 29.87 in - NW 18.4 mph 25.3 mph N/A   Unknown
8:00 PM 62.4 °F - 31.3 °F 31% 29.93 in - NNW 3.5 mph - N/A   Unknown
9:00 PM 57.7 °F - 30.6 °F 36% 29.96 in - NNW 5.8 mph - N/A   Unknown
10:00 PM 55.8 °F - 31.6 °F 40% 29.97 in - NW 11.5 mph - N/A   Unknown
11:00 PM 55.0 °F - 32.9 °F 43% 29.99 in - NW 12.7 mph - N/A   Unknown